This demonstration page uses our WeatherBlox Daily Observations layout. Learn more.

Left ArrowRight Arrow

53.62937, 11.41316

Hourly Observations for July 20, 2022

Temp ( °F °C ) Dew Point ( °F °C ) Humidity (%) Winds ( mph kmh ) Pressure ( in mb ) Visibility ( mi km ) Precip ( " mm )
12:20 am 00:20 Mostly Clear 72 22 55 13 57 57 E 7 11 30.06 1018 30 48 N/A
12:50 am 00:50 Mostly Clear 72 22 55 13 57 57 ESE 3 6 30.06 1018 30 48 N/A
1:20 am 01:20 Mostly Clear 70 21 55 13 60 60 ESE 3 6 30.06 1018 30 48 N/A
1:50 am 01:50 Mostly Clear 72 22 55 13 57 57 SE 3 6 30.03 1017 30 48 N/A
2:20 am 02:20 Mostly Clear 70 21 55 13 60 60 ESE 5 7 30.03 1017 30 48 N/A
2:50 am 02:50 Mostly Clear 70 21 55 13 60 60 ESE 5 7 30.03 1017 30 48 N/A
3:20 am 03:20 Mostly Clear 70 21 55 13 60 60 SE 5 7 30.03 1017 30 48 N/A
3:50 am 03:50 Mostly Clear 72 22 55 13 57 57 SE 3 6 30.03 1017 30 48 N/A
4:20 am 04:20 Mostly Clear 70 21 57 14 64 64 SE 3 6 30.03 1017 30 48 N/A
4:50 am 04:50 Mostly Clear 70 21 55 13 60 60 SE 3 6 30.03 1017 30 48 N/A
5:20 am 05:20 Mostly Sunny 70 21 55 13 60 60 SE 5 7 30.00 1016 30 48 N/A
5:50 am 05:50 Mostly Sunny 70 21 55 13 60 60 SE 5 7 30.00 1016 30 48 N/A
6:20 am 06:20 Mostly Sunny 70 21 55 13 60 60 SE 5 7 30.03 1017 7 11 N/A
6:50 am 06:50 Mostly Sunny 72 22 55 13 57 57 SE 6 9 30.03 1017 7 11 N/A
7:20 am 07:20 Mostly Sunny 73 23 55 13 53 53 SSE 5 7 30.03 1017 7 11 N/A
7:50 am 07:50 Mostly Sunny 73 23 55 13 53 53 SSE 6 9 30.03 1017 7 11 N/A
8:20 am 08:20 Mostly Sunny 75 24 57 14 54 54 SSE 6 9 30.03 1017 7 11 N/A
8:50 am 08:50 Mostly Sunny 79 26 55 13 45 45 SSE 6 9 30.00 1016 7 11 N/A
9:20 am 09:20 Mostly Sunny 81 27 57 14 45 45 SSE 8 13 30.00 1016 7 11 N/A
9:50 am 09:50 Mostly Sunny 82 28 57 14 42 42 SSE 8 13 30.00 1016 7 11 N/A
10:20 am 10:20 Mostly Sunny 84 29 57 14 40 40 SSE 7 11 30.00 1016 7 11 N/A
10:50 am 10:50 Mostly Sunny 86 30 55 13 35 35 SSE 7 11 30.00 1016 7 11 N/A
11:20 am 11:20 Mostly Sunny 90 32 57 14 33 33 SE 7 11 30.00 1016 7 11 N/A
11:50 am 11:50 Mostly Sunny 91 33 55 13 30 30 SSE 8 13 30.00 1016 7 11 N/A
12:20 pm 12:20 Mostly Sunny 93 34 55 13 28 28 SSE 7 11 30.00 1016 7 11 N/A
12:50 pm 12:50 Mostly Sunny 95 35 55 13 26 26 SE 7 11 30.00 1016 7 11 N/A
1:20 pm 13:20 Mostly Sunny 97 36 55 13 25 25 SE 7 11 30.00 1016 7 11 N/A
1:50 pm 13:50 Mostly Sunny 99 37 54 12 22 22 SE 8 13 30.00 1016 7 11 N/A
2:20 pm 14:20 Mostly Sunny 99 37 54 12 22 22 SSE 7 11 29.97 1015 7 11 N/A
2:50 pm 14:50 Mostly Sunny 99 37 52 11 21 21 SE 8 13 29.97 1015 7 11 N/A
3:20 pm 15:20 Mostly Sunny 99 37 50 10 19 19 SSE 9 15 29.97 1015 7 11 N/A
3:50 pm 15:50 Mostly Sunny 100 38 54 12 21 21 VRB 7 11 29.97 1015 7 11 N/A
4:20 pm 16:20 Mostly Sunny 100 38 54 12 21 21 SE 9 15 29.97 1015 7 11 N/A
4:50 pm 16:50 Mostly Sunny 100 38 52 11 20 20 SSE 9 15 29.94 1014 7 11 N/A
5:20 pm 17:20 Mostly Sunny 100 38 50 10 18 18 SE 7 11 29.94 1014 7 11 N/A
5:50 pm 17:50 Mostly Sunny 100 38 50 10 18 18 SSE 6 9 29.94 1014 7 11 N/A
6:20 pm 18:20 Mostly Sunny 100 38 48 9 17 17 SSE 6 9 29.91 1013 7 11 N/A
6:50 pm 18:50 Mostly Sunny 100 38 52 11 20 20 SSE 5 7 29.91 1013 7 11 N/A
7:20 pm 19:20 Mostly Sunny 91 33 64 18 41 41 WNW 12 19 29.94 1014 7 11 N/A
7:50 pm 19:50 Mostly Sunny 90 32 64 18 43 43 NW 12 19 29.94 1014 7 11 N/A
8:20 pm 20:20 Mostly Sunny 86 30 64 18 49 49 NW 8 13 29.94 1014 7 11 N/A
8:50 pm 20:50 Mostly Sunny 82 28 61 16 48 48 NW 9 15 29.94 1014 7 11 N/A
9:20 pm 21:20 Mostly Sunny 79 26 61 16 54 54 WNW 7 11 29.97 1015 30 48 N/A
9:50 pm 21:50 Mostly Clear 77 25 63 17 61 61 W 5 7 29.97 1015 30 48 N/A
10:20 pm 22:20 Mostly Clear 77 25 63 17 61 61 WNW 6 9 29.97 1015 30 48 N/A
10:50 pm 22:50 Mostly Clear 75 24 63 17 65 65 WNW 6 9 29.97 1015 30 48 N/A
11:20 pm 23:20 Mostly Clear 73 23 63 17 69 69 WNW 6 9 29.97 1015 30 48 N/A
11:50 pm 23:50 Mostly Clear 72 22 63 17 73 73 WNW 6 9 29.97 1015 30 48 N/A

Powered by AerisWeather